Vorticity
6 7 7 7 7 7 7 7 7 7 7 8 9 9 9 9 9 9 8 7 7 6 6 6 7 6 6 7 7 7 7 7 8 8 7 7 6 6 6 5 5 5 5 4 5 5 6 6 6 7 7 8 9 9 9 9 9 9 8 7 7 8 9 8 7 7 8 9 10
8 8 8 8 8 8 8 8 8 8 8 9 9 9 9 10 9 9 8 8 7 7 6 6 6 7 7 7 8 8 7 7 7 7 7 7 6 6 6 5 5 5 5 5 5 6 6 6 7 8 8 9 9 10 10 11 11 11 10 10 10 10 9 8 8 7 7 8 8
9 10 10 10 9 9 8 8 9 9 9 10 10 10 9 10 9 9 8 8 7 6 6 6 6 7 7 7 8 8 8 7 7 7 7 7 6 6 5 5 5 5 5 5 6 6 6 7 7 8 8 9 9 10 10 10 10 10 10 10 11 11 11 12 11 11 10 10 11
10 11 11 10 10 10 10 10 10 10 10 10 10 10 10 9 9 8 8 7 6 7 7 7 7 7 7 7 7 8 8 7 7 7 7 6 6 5 5 5 5 4 5 6 6 7 7 7 8 8 8 9 9 9 10 10 10 9 9 10 10 11 12 13 13 13 12 12 13
10 11 11 11 11 11 11 10 10 10 10 10 10 10 10 9 8 8 7 7 8 8 7 8 7 7 7 8 8 7 7 7 7 7 7 6 6 6 5 5 5 5 5 6 7 7 8 8 9 9 9 9 9 9 10 11 10 10 10 10 10 11 11 12 12 12 12 12 13
10 11 11 11 11 11 11 11 10 10 10 10 9 9 9 9 9 8 8 9 8 8 8 8 8 7 7 8 8 8 8 7 7 7 7 6 6 6 6 6 5 5 6 7 8 8 8 9 10 10 10 10 10 10 11 12 12 12 12 11 10 10 10 9 10 11 11 11 11
10 11 11 12 12 12 11 10 10 10 10 10 10 10 10 10 9 10 10 9 8 8 8 8 8 7 7 8 8 8 8 8 7 7 6 6 6 6 6 6 6 6 7 8 9 9 10 10 10 11 11 12 12 12 13 13 13 13 13 12 12 10 10 10 11 11 10 10 10
10 11 12 12 12 11 10 10 10 10 10 10 10 10 10 10 10 10 10 9 9 9 9 9 9 8 8 8 8 8 8 8 8 7 7 6 6 6 6 6 6 7 8 9 10 10 10 11 12 12 13 13 14 14 15 15 14 13 13 12 13 12 12 12 11 10 9 9 9
10 11 12 11 10 10 9 9 10 10 10 10 10 10 10 10 10 10 10 10 10 10 10 9 9 9 8 8 8 8 9 9 9 8 8 7 7 7 7 7 8 9 10 10 10 11 11 13 14 14 14 14 14 15 15 14 14 13 12 12 13 12 12 11 10 9 8 8 8
10 10 10 10 9 9 9 9 9 9 9 9 9 9 10 10 10 10 11 11 10 10 10 10 9 9 9 8 8 8 9 10 10 10 9 9 8 8 8 8 10 10 11 12 12 13 14 16 16 16 15 14 13 13 13 12 12 11 11 11 10 10 10 9 8 7 7 6 6
10 9 9 8 8 8 8 8 8 8 8 8 8 8 9 9 10 10 10 10 10 10 10 10 10 9 9 10 10 9 9 10 10 10 10 10 10 10 10 10 11 12 13 14 16 17 17 17 16 15 14 13 12 11 11 10 10 9 9 9 8 7 7 7 6 6 6 6 5
9 8 8 7 7 7 8 8 7 7 7 7 7 7 8 9 9 9 9 10 10 10 11 11 10 10 10 11 11 10 10 11 11 11 11 12 12 12 12 13 14 16 18 19 19 18 17 15 14 14 13 12 11 10 9 8 8 8 7 7 7 6 6 6 6 6 5 5 4
8 7 7 7 7 7 7 7 7 7 7 7 7 8 8 8 9 9 10 10 11 12 12 12 12 11 11 11 11 11 12 12 12 12 12 12 13 14 16 18 19 21 21 20 18 16 15 14 13 13 12 11 10 8 8 7 7 7 6 6 6 6 6 6 5 5 4 4 4
8 7 7 7 7 8 8 8 8 8 8 8 9 9 9 9 10 10 11 11 12 12 12 12 12 12 12 12 12 12 13 13 14 13 13 13 14 17 20 22 23 22 21 18 16 14 13 12 12 11 10 9 8 8 7 7 7 7 6 6 5 5 5 4 4 4 3 3 3
9 8 8 8 8 9 9 10 10 10 10 10 10 10 10 11 12 12 12 12 12 12 12 12 12 12 12 12 12 13 13 14 14 15 15 17 20 22 24 24 22 19 17 15 13 12 11 10 10 9 9 8 8 8 7 7 7 6 5 5 4 4 4 4 3 3 3 3 3
10 10 10 10 10 11 11 12 12 12 12 12 12 12 12 12 12 12 12 12 12 12 11 11 12 12 13 13 13 14 14 16 17 19 22 24 25 25 23 20 17 14 12 11 10 10 9 9 9 9 8 8 7 7 6 6 5 5 4 4 4 4 4 4 4 4 4 4 4
12 12 12 12 12 13 13 13 12 12 12 12 12 12 12 12 12 12 12 11 11 11 11 12 12 13 14 15 16 16 18 19 22 23 24 24 22 19 16 13 12 10 9 9 9 8 9 9 8 8 8 7 6 5 5 4 4 4 4 4 4 4 4 4 4 4 4 5 6
13 13 13 13 13 13 12 12 12 12 12 12 12 12 12 11 11 11 11 11 11 11 12 13 14 15 16 18 19 20 21 22 22 21 18 15 13 12 11 10 9 9 8 8 8 8 8 7 7 6 6 6 5 4 4 4 4 4 4 4 4 4 4 4 5 5 5 6 7
13 13 13 12 12 11 11 11 11 11 11 11 11 11 11 11 11 11 11 12 12 13 14 16 17 18 19 20 21 21 20 18 16 14 12 10 10 9 9 8 8 8 8 8 7 7 6 6 6 5 5 5 4 4 4 4 3 3 3 4 4 4 5 5 6 6 7 8 8
12 11 11 10 10 10 10 10 10 10 10 10 10 10 11 11 11 12 13 14 16 17 18 19 20 21 21 20 19 17 15 13 10 9 8 8 8 8 7 7 7 7 6 6 6 5 5 5 4 4 4 4 3 3 3 3 3 4 4 4 5 6 6 7 7 8 9 10 10
9 9 9 9 9 10 10 10 10 10 10 10 10 11 12 12 14 15 16 17 19 20 20 21 20 19 17 15 13 12 10 8 8 7 7 7 7 6 6 6 6 5 5 5 5 5 4 4 4 3 3 3 3 3 3 3 4 4 5 6 7 7 8 9 9 10 11 12 13
9 9 9 9 10 10 10 10 10 10 10 10 11 12 14 15 17 18 19 19 20 20 20 18 16 14 12 10 8 7 6 6 6 6 6 5 5 5 5 5 5 5 5 5 4 4 4 3 3 3 3 3 3 4 4 5 5 6 7 8 8 9 10 10 11 12 12 13 14
9 9 10 10 9 9 9 10 10 10 11 12 14 16 17 18 19 19 19 19 18 17 15 13 11 10 8 7 6 6 5 5 5 5 5 4 4 4 5 5 5 5 4 4 3 3 2 2 2 3 3 4 4 5 6 6 7 8 8 9 10 11 11 12 13 13 14 14 15
9 9 9 9 9 10 10 10 11 12 14 16 18 18 19 18 18 17 16 15 14 12 10 9 8 7 7 6 5 5 4 4 4 4 4 5 5 5 5 5 4 4 3 2 2 2 2 2 3 4 5 5 6 6 7 8 9 9 10 10 11 12 13 13 14 14 14 14 14
9 9 9 10 10 10 11 12 13 15 17 18 18 18 17 16 14 13 12 11 10 8 8 7 6 6 5 5 4 4 4 4 4 4 5 5 5 4 4 4 3 3 2 2 2 3 4 4 5 5 6 7 7 8 9 10 10 11 11 12 12 13 13 14 14 14 14 13 12
9 10 10 11 11 12 13 14 16 17 17 17 16 15 14 13 11 10 9 8 7 7 6 6 5 5 5 4 4 5 5 5 5 5 4 4 3 3 3 2 2 2 2 3 4 4 5 6 7 7 8 8 9 9 10 11 12 12 13 13 14 14 14 13 13 12 11 10 9
10 10 11 11 12 13 14 15 16 16 15 14 13 12 11 10 9 8 8 7 6 6 6 5 5 5 5 5 5 5 5 5 4 4 3 2 2 2 2 2 3 3 4 5 5 6 7 7 8 8 9 10 10 11 11 12 13 13 14 14 14 14 13 12 10 9 8 7 6
10 10 11 11 12 13 14 14 14 14 13 12 10 9 8 8 8 7 7 6 6 5 5 6 6 5 5 6 6 5 4 3 3 2 2 2 2 2 3 4 4 5 6 6 7 7 8 8 9 9 10 11 12 12 13 13 13 14 14 14 13 12 11 10 8 7 6 5 5
10 11 11 12 13 13 13 14 13 12 10 9 8 8 7 7 6 6 6 6 5 6 6 6 6 6 6 6 5 4 2 2 2 2 2 2 4 4 5 5 6 6 6 7 8 8 9 9 10 11 11 12 12 13 13 14 14 13 13 12 11 10 8 7 6 6 5 5 5
10 11 11 12 12 13 13 12 11 9 8 7 7 7 6 6 6 6 6 6 7 7 7 6 5 5 5 4 2 2 2 2 2 3 3 4 5 6 6 6 6 7 7 8 9 9 10 11 11 12 12 13 13 13 14 14 13 12 11 10 8 7 6 6 5 5 5 5 5
10 10 11 11 12 12 11 9 8 7 7 6 6 6 6 6 6 6 7 7 7 6 6 5 4 4 3 2 1 2 2 3 4 4 5 6 6 6 6 7 7 8 9 9 10 11 11 12 12 12 13 13 13 13 13 12 11 10 8 7 6 6 5 5 5 5 4 4 4
10 10 10 10 10 9 8 7 6 6 5 6 6 6 6 6 7 7 7 7 6 5 4 4 3 2 2 2 2 3 4 4 5 6 6 6 6 7 7 8 9 9 10 11 11 12 12 12 13 13 13 13 13 12 12 10 9 8 7 6 6 5 5 5 5 4 4 4 3
10 9 9 9 8 6 5 5 5 5 5 5 6 6 7 7 8 7 7 6 5 4 3 2 2 2 2 3 4 5 6 6 6 6 6 7 7 8 8 9 10 11 11 12 12 12 12 12 13 13 13 13 12 11 9 8 7 6 6 5 5 5 5 4 4 4 4 3 3
9 8 8 7 6 5 4 4 4 4 5 6 7 8 8 8 8 7 6 5 4 3 2 2 2 3 4 5 6 6 6 6 6 7 7 8 8 9 10 11 11 11 12 12 12 12 13 13 13 12 12 11 10 8 7 6 6 5 5 5 5 5 4 4 4 3 3 3 3
9 8 7 6 5 4 4 4 5 6 6 8 8 9 9 8 7 6 4 3 3 2 3 4 4 5 6 6 6 6 6 6 7 8 8 9 10 10 11 12 12 12 12 12 12 13 13 13 12 11 10 9 8 7 6 5 5 5 5 5 4 4 4 4 3 3 3 3 3
8 7 6 5 4 4 4 5 6 7 8 9 9 8 8 6 5 4 3 2 3 3 4 5 6 6 6 6 7 7 7 7 8 9 9 10 10 11 12 12 12 12 12 13 13 13 12 12 10 9 8 7 6 6 5 5 5 5 4 4 4 4 4 3 3 3 3 3 4
7 7 6 5 5 5 6 7 8 9 10 9 8 7 6 4 4 3 3 3 4 5 6 6 6 6 6 6 7 7 8 8 9 10 10 11 11 12 12 12 12 12 13 13 12 12 11 10 8 7 6 6 5 5 5 5 4 4 4 4 4 4 3 3 3 3 4 4 4
7 6 6 6 6 7 8 9 10 10 9 7 6 5 4 3 3 4 4 5 6 6 6 6 6 6 7 7 7 8 9 10 10 10 11 11 12 12 12 12 13 13 12 12 11 10 9 8 7 6 5 5 5 5 5 4 4 4 4 4 4 3 3 3 4 4 4 5 5
7 7 6 7 8 8 9 9 9 8 6 5 4 3 3 4 5 5 6 7 7 6 6 6 6 7 7 8 8 9 10 10 11 11 12 12 12 13 13 13 12 12 11 10 9 8 7 6 6 5 5 5 5 5 4 4 4 4 4 3 3 4 4 4 4 4 5 6 6
8 8 8 8 9 8 8 8 7 5 4 3 3 4 4 6 6 7 7 7 6 6 6 6 7 7 8 9 9 10 10 11 11 12 12 12 12 13 13 13 11 10 10 9 8 7 6 6 5 5 5 5 5 4 4 4 4 4 4 3 4 4 4 4 5 5 6 6 7
9 9 10 10 9 7 6 5 4 3 3 3 4 5 6 7 7 7 6 6 6 6 7 7 8 8 9 10 10 10 10 11 12 12 13 13 13 13 13 12 10 9 8 8 7 6 6 5 5 5 5 5 4 4 4 3 3 3 4 4 4 4 4 5 5 6 6 7 8
Height
3080 3081 3081 3082 3082 3083 3084 3085 3086 3086 3086 3086 3086 3086 3086 3086 3086 3087 3087 3087 3087 3088 3089 3091 3092 3092 3093 3094 3095 3096 3096 3097 3097 3097 3098 3098 3099 3099 3099 3100 3100 3100 3100 3101 3101 3101 3102 3102 3102 3102 3102 3102 3102 3102 3101 3101 3101 3101 3101 3100 3100 3099 3099 3099 3098 3098 3098 3097 3097
3079 3079 3080 3081 3081 3082 3083 3084 3084 3084 3085 3085 3085 3085 3085 3085 3085 3085 3085 3086 3086 3087 3088 3089 3090 3091 3092 3093 3094 3094 3095 3095 3096 3096 3097 3097 3097 3098 3098 3098 3098 3099 3099 3099 3100 3100 3101 3101 3101 3101 3101 3101 3101 3100 3100 3100 3100 3100 3099 3099 3098 3098 3098 3098 3097 3097 3096 3096 3095
3077 3078 3078 3079 3080 3081 3082 3082 3083 3083 3083 3083 3083 3083 3083 3083 3084 3084 3084 3084 3085 3086 3087 3087 3088 3090 3091 3092 3092 3093 3093 3094 3094 3095 3095 3096 3096 3096 3097 3097 3097 3097 3098 3098 3099 3099 3099 3100 3100 3100 3100 3100 3099 3099 3098 3098 3098 3098 3097 3097 3097 3097 3097 3096 3096 3095 3095 3094 3094
3075 3076 3077 3078 3078 3079 3080 3081 3081 3081 3081 3081 3082 3082 3082 3082 3082 3083 3083 3083 3084 3084 3085 3086 3087 3088 3089 3090 3091 3092 3092 3092 3093 3094 3094 3095 3095 3095 3095 3096 3096 3096 3097 3097 3097 3098 3098 3098 3099 3099 3098 3098 3098 3097 3097 3097 3097 3096 3096 3096 3095 3095 3095 3095 3094 3094 3094 3093 3093
3074 3075 3076 3077 3077 3078 3079 3079 3079 3079 3080 3080 3080 3081 3081 3081 3081 3082 3082 3082 3082 3083 3084 3085 3086 3087 3087 3089 3090 3090 3091 3091 3092 3092 3093 3093 3093 3094 3094 3094 3095 3095 3095 3096 3096 3097 3097 3097 3097 3097 3097 3097 3097 3096 3096 3095 3095 3095 3094 3094 3094 3094 3094 3094 3093 3093 3092 3092 3091
3072 3073 3074 3075 3076 3077 3077 3077 3077 3077 3078 3078 3079 3079 3080 3080 3080 3081 3081 3081 3082 3082 3082 3083 3084 3085 3086 3087 3088 3089 3089 3090 3091 3091 3092 3092 3092 3093 3093 3093 3093 3094 3094 3095 3095 3096 3096 3096 3096 3096 3096 3096 3095 3095 3094 3094 3094 3093 3093 3093 3093 3092 3092 3092 3092 3092 3091 3090 3089
3071 3072 3073 3074 3074 3075 3075 3075 3076 3076 3077 3077 3078 3078 3078 3079 3079 3079 3080 3080 3080 3081 3082 3082 3083 3084 3085 3086 3087 3087 3088 3089 3089 3090 3090 3091 3091 3092 3092 3092 3092 3093 3093 3094 3094 3095 3095 3095 3095 3095 3095 3094 3094 3093 3093 3092 3092 3092 3092 3092 3092 3091 3091 3090 3090 3089 3089 3088 3087
3070 3071 3072 3072 3073 3073 3073 3074 3074 3075 3076 3076 3077 3077 3077 3078 3078 3078 3079 3079 3079 3080 3080 3081 3082 3083 3083 3084 3085 3086 3087 3087 3088 3089 3089 3089 3090 3090 3091 3091 3091 3092 3092 3093 3093 3093 3093 3093 3093 3093 3093 3093 3092 3092 3092 3092 3091 3091 3090 3090 3090 3089 3089 3088 3088 3087 3087 3086 3085
3068 3069 3070 3071 3071 3072 3072 3072 3073 3074 3075 3075 3076 3076 3076 3077 3077 3077 3077 3078 3078 3079 3079 3080 3081 3082 3082 3083 3084 3085 3086 3086 3087 3087 3088 3088 3089 3089 3089 3090 3090 3091 3091 3092 3092 3092 3092 3092 3092 3092 3092 3091 3091 3091 3090 3090 3089 3089 3088 3088 3087 3087 3087 3086 3086 3085 3085 3084 3083
3067 3068 3069 3069 3070 3070 3071 3072 3072 3073 3073 3074 3074 3075 3075 3076 3076 3076 3077 3077 3077 3078 3078 3079 3080 3080 3081 3082 3083 3083 3084 3085 3086 3086 3087 3087 3087 3088 3088 3089 3089 3090 3091 3091 3091 3091 3091 3091 3090 3090 3090 3090 3089 3089 3088 3088 3087 3087 3087 3086 3086 3085 3085 3085 3084 3083 3083 3082 3082
3066 3067 3067 3068 3068 3069 3070 3071 3071 3072 3072 3073 3073 3073 3074 3074 3075 3075 3076 3076 3077 3077 3077 3078 3079 3079 3080 3081 3082 3082 3083 3084 3084 3085 3086 3086 3087 3087 3087 3088 3088 3089 3089 3089 3089 3089 3089 3089 3088 3088 3088 3087 3087 3087 3086 3086 3086 3085 3085 3084 3084 3083 3083 3082 3082 3082 3081 3081 3080
3065 3065 3066 3067 3067 3068 3069 3069 3070 3071 3071 3072 3072 3072 3073 3073 3074 3074 3075 3075 3076 3076 3077 3077 3078 3078 3079 3080 3081 3081 3082 3082 3083 3084 3084 3085 3086 3086 3087 3087 3087 3088 3088 3088 3088 3087 3087 3087 3086 3086 3086 3085 3085 3085 3084 3084 3084 3083 3083 3082 3082 3082 3082 3081 3081 3080 3080 3079 3078
3063 3064 3065 3065 3066 3067 3067 3068 3069 3069 3070 3070 3071 3072 3072 3072 3073 3073 3074 3074 3075 3075 3076 3077 3077 3077 3078 3079 3079 3080 3081 3081 3082 3083 3083 3084 3084 3085 3086 3086 3086 3086 3086 3086 3086 3086 3085 3085 3084 3084 3084 3083 3083 3083 3083 3082 3082 3082 3082 3081 3081 3081 3080 3080 3079 3079 3078 3077 3077
3062 3062 3063 3064 3065 3066 3066 3067 3067 3068 3069 3069 3070 3071 3071 3071 3072 3072 3073 3073 3074 3074 3075 3076 3076 3077 3077 3078 3078 3079 3080 3080 3081 3082 3082 3082 3083 3084 3084 3084 3085 3085 3085 3084 3084 3083 3083 3083 3082 3082 3082 3082 3082 3082 3082 3081 3081 3081 3081 3080 3080 3079 3079 3079 3078 3077 3077 3076 3075
3060 3061 3062 3063 3064 3064 3065 3066 3066 3067 3067 3068 3069 3069 3070 3070 3071 3072 3072 3072 3073 3074 3074 3075 3075 3076 3077 3077 3078 3078 3079 3080 3080 3081 3081 3082 3082 3082 3082 3083 3083 3083 3082 3082 3082 3082 3081 3081 3081 3081 3081 3081 3081 3081 3081 3080 3080 3080 3080 3079 3079 3078 3078 3077 3077 3076 3075 3074 3073
3059 3060 3061 3062 3062 3063 3064 3064 3065 3066 3067 3067 3068 3068 3069 3069 3070 3071 3071 3072 3072 3073 3073 3074 3075 3075 3076 3076 3077 3077 3078 3079 3079 3080 3080 3080 3081 3081 3081 3081 3081 3081 3081 3080 3080 3080 3080 3080 3080 3080 3080 3080 3080 3080 3080 3080 3079 3079 3079 3078 3078 3077 3077 3076 3075 3074 3073 3072 3071
3058 3059 3060 3060 3061 3062 3063 3063 3064 3065 3066 3066 3067 3067 3068 3069 3069 3070 3070 3071 3072 3072 3072 3073 3074 3074 3075 3076 3076 3077 3077 3077 3078 3078 3079 3079 3079 3079 3079 3079 3079 3079 3079 3079 3079 3079 3079 3079 3079 3080 3080 3079 3079 3079 3079 3079 3078 3078 3077 3077 3077 3076 3075 3074 3073 3072 3071 3070 3069
3057 3057 3058 3059 3060 3061 3062 3062 3063 3064 3064 3065 3066 3067 3067 3068 3068 3069 3070 3070 3071 3071 3072 3072 3073 3074 3074 3075 3075 3076 3076 3077 3077 3077 3077 3077 3077 3077 3078 3078 3078 3078 3078 3078 3078 3079 3079 3079 3079 3079 3079 3079 3078 3078 3078 3077 3077 3077 3076 3076 3075 3074 3073 3072 3071 3070 3069 3068 3067
3056 3057 3057 3058 3059 3060 3061 3062 3062 3063 3063 3064 3065 3066 3067 3067 3067 3068 3068 3069 3070 3070 3071 3072 3072 3073 3073 3074 3074 3075 3075 3075 3075 3076 3076 3076 3076 3077 3077 3077 3077 3077 3078 3078 3078 3078 3078 3078 3078 3078 3078 3077 3077 3077 3077 3076 3076 3075 3075 3074 3073 3072 3071 3070 3069 3068 3067 3066 3065
3055 3056 3057 3057 3058 3059 3060 3061 3061 3062 3063 3063 3064 3065 3066 3066 3067 3067 3067 3068 3069 3070 3070 3071 3071 3072 3072 3073 3073 3073 3074 3074 3074 3074 3075 3075 3076 3076 3076 3077 3077 3077 3077 3077 3077 3077 3077 3077 3077 3077 3077 3077 3076 3076 3075 3075 3074 3074 3073 3072 3071 3070 3069 3068 3067 3066 3065 3064 3063
3054 3055 3056 3057 3057 3058 3059 3060 3061 3062 3062 3063 3063 3064 3065 3065 3066 3066 3067 3067 3068 3069 3069 3070 3070 3071 3071 3072 3072 3072 3072 3072 3073 3073 3074 3074 3075 3075 3076 3076 3077 3077 3077 3077 3077 3077 3077 3076 3076 3076 3076 3075 3075 3074 3074 3073 3072 3072 3071 3070 3069 3068 3067 3066 3065 3064 3063 3062 3061
3053 3054 3055 3056 3057 3058 3058 3059 3060 3061 3061 3062 3063 3063 3064 3064 3065 3065 3066 3067 3067 3068 3068 3069 3069 3070 3070 3070 3071 3071 3072 3072 3072 3073 3073 3074 3075 3075 3075 3076 3076 3076 3076 3076 3076 3076 3075 3075 3075 3075 3074 3074 3073 3073 3072 3072 3071 3070 3069 3068 3067 3066 3065 3064 3063 3062 3061 3060 3059
3053 3054 3055 3056 3056 3057 3058 3058 3059 3060 3061 3061 3062 3062 3063 3063 3064 3065 3065 3066 3066 3067 3067 3068 3068 3069 3069 3070 3070 3071 3071 3072 3072 3073 3073 3074 3074 3075 3075 3075 3075 3075 3075 3075 3075 3075 3074 3074 3074 3073 3073 3072 3072 3071 3071 3070 3069 3068 3067 3066 3065 3064 3063 3062 3061 3060 3059 3058 3057
3052 3053 3054 3055 3056 3056 3057 3058 3058 3059 3060 3060 3061 3062 3062 3063 3063 3064 3064 3065 3066 3067 3067 3067 3068 3068 3069 3069 3070 3070 3071 3071 3072 3072 3073 3073 3074 3074 3074 3074 3074 3074 3074 3074 3074 3073 3073 3073 3073 3072 3072 3071 3070 3070 3069 3068 3067 3066 3065 3064 3063 3062 3062 3061 3059 3058 3057 3056 3055
3052 3052 3053 3054 3055 3056 3056 3057 3057 3058 3059 3059 3060 3061 3062 3062 3062 3063 3064 3065 3065 3066 3067 3067 3068 3068 3069 3069 3070 3070 3071 3071 3072 3072 3072 3073 3073 3073 3073 3073 3073 3073 3073 3073 3072 3072 3072 3072 3071 3071 3070 3070 3069 3068 3067 3067 3066 3065 3064 3063 3062 3061 3060 3059 3058 3057 3056 3055 3053
3051 3052 3052 3053 3054 3055 3056 3056 3057 3057 3058 3059 3060 3060 3061 3062 3062 3063 3063 3064 3065 3066 3066 3067 3067 3068 3068 3069 3070 3070 3070 3071 3071 3072 3072 3072 3072 3072 3072 3072 3072 3072 3072 3072 3071 3071 3071 3070 3070 3069 3069 3068 3067 3067 3066 3065 3064 3063 3062 3061 3060 3059 3058 3057 3056 3055 3054 3053 3052
3050 3051 3052 3052 3053 3054 3055 3056 3057 3057 3058 3058 3059 3060 3060 3061 3062 3063 3063 3064 3065 3065 3066 3067 3067 3068 3068 3069 3069 3069 3070 3070 3071 3071 3071 3071 3072 3072 3072 3072 3071 3071 3071 3070 3070 3070 3069 3069 3068 3068 3067 3067 3066 3065 3064 3063 3062 3062 3061 3060 3059 3058 3057 3056 3055 3054 3053 3052 3050
3050 3050 3051 3052 3053 3054 3054 3055 3056 3057 3057 3058 3059 3059 3060 3061 3062 3062 3063 3064 3065 3065 3066 3067 3067 3067 3068 3068 3069 3069 3069 3069 3070 3070 3070 3071 3071 3071 3071 3070 3070 3070 3069 3069 3069 3068 3068 3067 3067 3066 3066 3065 3064 3064 3063 3062 3061 3060 3059 3058 3057 3057 3055 3054 3053 3052 3051 3050 3049
3049 3050 3051 3052 3052 3053 3054 3055 3055 3056 3057 3058 3058 3059 3060 3061 3062 3062 3063 3064 3064 3065 3066 3066 3067 3067 3067 3068 3068 3068 3068 3069 3069 3069 3069 3069 3070 3070 3069 3069 3069 3068 3068 3068 3067 3067 3067 3066 3066 3065 3064 3064 3063 3062 3062 3061 3060 3059 3058 3057 3056 3055 3054 3053 3052 3051 3050 3048 3047
3048 3049 3050 3051 3052 3053 3053 3054 3055 3056 3057 3057 3058 3059 3060 3060 3061 3062 3063 3063 3064 3065 3065 3066 3066 3066 3067 3067 3067 3067 3067 3068 3068 3068 3068 3068 3068 3068 3068 3068 3068 3067 3067 3067 3066 3066 3065 3065 3064 3064 3063 3062 3062 3061 3060 3059 3058 3057 3057 3056 3055 3054 3053 3052 3051 3049 3048 3047 3045
3048 3049 3050 3051 3052 3052 3053 3054 3055 3056 3056 3057 3058 3059 3059 3060 3061 3062 3062 3063 3063 3064 3065 3065 3065 3066 3066 3066 3067 3067 3067 3067 3067 3067 3067 3067 3067 3067 3067 3067 3067 3066 3066 3066 3065 3065 3064 3063 3063 3062 3062 3061 3060 3059 3059 3058 3057 3056 3055 3054 3053 3052 3051 3050 3049 3048 3047 3045 3044
3047 3048 3049 3050 3051 3052 3053 3053 3054 3055 3056 3057 3057 3058 3059 3060 3061 3061 3062 3062 3063 3063 3064 3064 3065 3065 3065 3065 3066 3066 3066 3066 3066 3066 3066 3066 3066 3066 3066 3066 3066 3065 3065 3064 3064 3063 3063 3062 3062 3061 3060 3060 3059 3058 3057 3057 3056 3055 3054 3053 3052 3051 3050 3049 3047 3046 3045 3043 3042
3047 3048 3049 3050 3051 3052 3052 3053 3054 3055 3056 3056 3057 3058 3059 3059 3060 3061 3061 3062 3062 3063 3063 3063 3064 3064 3064 3065 3065 3065 3065 3065 3065 3065 3065 3065 3065 3065 3065 3064 3064 3064 3063 3063 3062 3062 3061 3061 3060 3060 3059 3058 3057 3057 3056 3055 3054 3053 3052 3052 3051 3049 3048 3047 3046 3045 3043 3042 3040
3047 3047 3048 3049 3050 3051 3052 3052 3053 3054 3055 3056 3057 3057 3058 3059 3059 3060 3061 3061 3062 3062 3062 3063 3063 3063 3064 3064 3064 3064 3064 3064 3064 3064 3064 3064 3064 3064 3063 3063 3063 3062 3062 3062 3061 3061 3060 3059 3059 3058 3057 3057 3056 3056 3055 3054 3053 3052 3051 3050 3049 3048 3047 3045 3044 3043 3041 3040 3038
3046 3047 3048 3049 3049 3050 3051 3052 3053 3054 3055 3055 3056 3057 3057 3058 3059 3059 3060 3061 3061 3061 3062 3062 3062 3063 3063 3063 3063 3063 3063 3063 3063 3063 3063 3063 3063 3062 3062 3062 3062 3061 3061 3060 3060 3059 3059 3058 3057 3057 3056 3056 3055 3054 3054 3053 3052 3051 3050 3049 3048 3047 3045 3044 3042 3041 3039 3037 3036
3045 3046 3047 3048 3049 3050 3051 3052 3052 3053 3054 3055 3056 3056 3057 3057 3058 3059 3059 3060 3060 3061 3061 3061 3062 3062 3062 3062 3062 3062 3062 3062 3062 3062 3062 3062 3062 3061 3061 3061 3060 3060 3059 3059 3058 3058 3057 3057 3056 3056 3055 3055 3054 3053 3052 3052 3051 3050 3048 3047 3046 3045 3043 3042 3041 3039 3037 3036 3033
3045 3046 3047 3047 3048 3049 3050 3051 3052 3053 3053 3054 3055 3056 3056 3057 3057 3058 3059 3059 3060 3060 3060 3060 3061 3061 3061 3061 3061 3061 3061 3061 3061 3061 3061 3061 3060 3060 3060 3059 3059 3059 3058 3058 3057 3057 3056 3056 3055 3055 3054 3054 3053 3052 3051 3050 3049 3048 3047 3046 3044 3043 3042 3040 3039 3037 3035 3033 3031
3044 3045 3046 3047 3048 3049 3050 3051 3051 3052 3053 3054 3054 3055 3056 3057 3057 3057 3058 3058 3059 3059 3059 3059 3060 3060 3060 3060 3060 3060 3060 3060 3060 3060 3060 3059 3059 3059 3059 3058 3058 3058 3057 3057 3056 3056 3055 3055 3054 3054 3053 3052 3052 3051 3050 3049 3048 3047 3045 3044 3043 3041 3040 3038 3037 3035 3033 3031 3029
3043 3044 3045 3046 3047 3048 3049 3050 3051 3052 3052 3053 3054 3055 3055 3056 3057 3057 3057 3058 3058 3058 3058 3058 3059 3059 3059 3059 3059 3059 3059 3059 3059 3059 3059 3058 3058 3058 3058 3057 3057 3057 3056 3056 3055 3055 3054 3054 3053 3052 3052 3051 3050 3050 3048 3047 3046 3045 3044 3042 3041 3039 3038 3036 3035 3033 3031 3028 3026
3043 3044 3045 3046 3047 3048 3049 3049 3050 3051 3052 3053 3053 3054 3055 3055 3056 3056 3057 3057 3057 3057 3057 3057 3058 3058 3058 3058 3058 3058 3058 3058 3058 3058 3058 3057 3057 3057 3057 3057 3056 3056 3055 3055 3054 3054 3053 3052 3052 3051 3051 3050 3049 3048 3047 3046 3045 3043 3042 3041 3039 3037 3036 3034 3032 3031 3028 3026 3023
3042 3043 3044 3045 3046 3047 3048 3049 3050 3051 3052 3052 3053 3053 3054 3055 3055 3055 3056 3056 3056 3056 3057 3057 3057 3057 3057 3057 3057 3057 3057 3057 3057 3057 3057 3057 3056 3056 3056 3056 3055 3055 3054 3054 3053 3052 3052 3051 3051 3050 3049 3049 3048 3047 3046 3045 3043 3042 3040 3039 3037 3036 3034 3032 3030 3028 3026 3023 3021